Regional Weather Roundup
Issued by NWS Sterling, VA

Home | Current Version | Previous Version | Text Only | Print | Product List | Glossary On
Versions: 1 2 3 4 5 6 7 8 9 10 11 12 13 14 15 16 17 18 19 20 21 22 23 24 25 26 27
000
ASUS41 KLWX 160810
RWRLWX

REGIONAL WEATHER ROUNDUP
NATIONAL WEATHER SERVICE BALTIMORE MD/WASHINGTON DC
400 AM EDT WED APR 16 2014

Note: "FAIR" indicates few or no clouds below 12,000 feet
with no significant weather and/or obstructions to visibility.
 TC=TEMPERATURE CELSIUS

 * =Non NWS site. Station does not report precipitation (e.g. rain,
    snow, etc.), thunder, or fog.

DCZ001-MDZ009-015-VAZ040>042-051-053>054-160900-
WASHINGTON METRO

CITY           SKY/WX    TMP DP  RH WIND       PRES   REMARKS
WASHINGTON NAT PTCLDY    34  15  46 N20       30.19R WCI  23
DULLES         PTCLDY    31  18  58 NW15G22   30.18R WCI  20
ANDREWS AFB    CLEAR     32  15  49 N22G30    30.17R WCI  20
FT BELVOIR     CLEAR     34  15  45 N10G20    30.19R WCI  26
QUANTICO       CLEAR     35  15  44 N15G31    30.20R WCI  25
COLLEGE PARK*  CLEAR     34  18  51 N10       30.18R WCI  26
LEESBURG*      CLEAR     32  23  69 N15       30.20R WCI  22
MANASSAS*      CLEAR     34  19  55 N12G17    30.19R WCI  25
GAITHERSBURG*  CLEAR     30  14  51 NW9G18    30.18R WCI  22

$$

MDZ006>007-011-014-160900-
BALTIMORE METRO

CITY           SKY/WX    TMP DP  RH WIND       PRES   REMARKS
BWI AIRPORT    PTCLDY    32  15  49 NW10      30.17R WCI  24
MD SCIENCE CTR   N/A     34  13  41 MISG      30.16R
MARTIN STATE   CLEAR     34  21  60 W16       30.18R WCI  23
ANNAPOLIS      CLEAR     36  23  59 N18       30.17R WCI  26
FORT MEADE*    CLEAR     32  18  55 NW10G21   30.20R WCI  24

$$

MDZ012-015-019>023-160900-
MARYLAND EASTERN SHORE

CITY           SKY/WX    TMP DP  RH WIND       PRES   REMARKS
OCEAN CITY     CLOUDY    37  29  72 N16G23    30.06R WCI  28
SALISBURY      PTCLDY    37  27  67 NW15G25   30.10R WCI  28
BAY BRIDGE AP* PTCLDY    34  19  55 NW21G30   30.16R WCI  22
CAMBRIDGE*     MOCLDY    37  25  60 NW15G28   30.12R WCI  28
EASTON*        PTCLDY    37  24  59 N12G24    30.17R

$$

MDZ017>025-160900-
SOUTHERN MARYLAND

CITY           SKY/WX    TMP DP  RH WIND       PRES   REMARKS
PATUXENT RIVER CLEAR     35  20  54 N21G29    30.16R WCI  24
ST INIGOES     CLEAR     35  35 100 NW12G20   30.15R WCI  27
LEONARDTOWN*   MOCLDY    34  19  55 NW9G17    30.17R WCI  26

$$

MDZ003>005-160900-
NORTH CENTRAL MARYLAND

CITY           SKY/WX    TMP DP  RH WIND       PRES   REMARKS
FREDERICK*     CLEAR     32  19  59 NW12G23   30.22R WCI  23
HAGERSTOWN APT PTCLDY    29  14  53 N12       30.19R WCI  19
WESTMINSTER*   CLEAR     28  14  54 NW14G23   30.14R WCI  17

$$

MDZ501>502-160900-
WESTERN MARYLAND

CITY           SKY/WX    TMP DP  RH WIND       PRES   REMARKS
OAKLAND*       CLOUDY    19  16  86 NW9       30.10R WCI   9
CUMBERLAND*    MOCLDY    32  19  59 N7        30.27R

$$

VAZ025>031-160900-
SHENANDOAH VALLEY

CITY           SKY/WX    TMP DP  RH WIND       PRES   REMARKS
WINCHESTER*    MOCLDY    32  16  51 NW9G20    30.20R WCI  24
STAUNTON*      CLOUDY    30  16  56 N7        30.20R

$$

WVZ021-048>050-054>055-160900-
EASTERN WEST VIRGINIA PANHANDLE

CITY           SKY/WX    TMP DP  RH WIND       PRES   REMARKS
MARTINSBURG    CLOUDY    32  15  49 N12G25    30.21R WCI  23
PETERSBURG*    CLOUDY    35  20  55 NW7       30.24R

$$

VAZ036>039-050-160900-
CENTRAL FOOTHILLS

CITY           SKY/WX    TMP DP  RH WIND       PRES   REMARKS
CHARLOTTESVILL CLEAR     32  15  49 N9        30.18R WCI  24
CULPEPER*      CLEAR     36  12  38 N13G20    30.22R WCI  27

$$

VAZ055>057-160900-
NORTH AND CENTRAL PIEDMONT

CITY           SKY/WX    TMP DP  RH WIND       PRES   REMARKS
FREDERICKSBRG* CLEAR     36  19  51 N9G22     30.18R WCI  29
STAFFORD*      CLEAR     33  20  59 NW12G25   30.23R WCI  24

$$

NCZ024-NYZ072-PAZ021-071-VAZ022-071-160900-
OTHER REGIONAL OBSERVATIONS

CITY           SKY/WX    TMP DP  RH WIND       PRES   REMARKS
NEW YORK CITY  CLOUDY    34  23  64 NW12G23   30.07R WCI  25
PHILADELPHIA   PTCLDY    34  16  47 N22G36    30.14R WCI  22
PITTSBURGH     MOCLDY    26  20  77 NW6       30.24R
ROANOKE        CLEAR     29  16  58 N9        30.20R WCI  20
RICHMOND       CLEAR     35  20  54 N14G20    30.17R WCI  26
RALEIGH        PTCLDY    36  23  59 VRB6      30.16R

$$

ANZ530>537-160900-
MARINE OBSERVATIONS

STATION/POSITION TIME  TEMP    WIND        PRES
                       AIR SEA DIR/SP/G
                 (UTC) (F)     (DEG/KT/KT) (MB)
THOMAS PT LIGHT  0800   35 50  330/ 22/ 28 1021.5R
BALT KEY BRIDGE  0800   35     310/ 21/ 29 1021.6R
COVE POINT       0800   36     350/ 33/ 37 1020.1R
LEWISETTA        0800   37 53  340/ 19/ 30 1021.1R
SOLOMONS ISLAND  0800      53                N/A
PINEY POINT      0800          350/ 24/ 26   N/A

$$




USA.gov is the U.S. government's official web portal to all federal, state and local government web resources and services.